| time (UTC) | temp C | wind direction | speed KPH | gust KPH | rain 1hr cm | rain 24hr cm | rain mn cm | humidity % | barometer mb |
| 20260831101606 | 19 | 0 | 0.0 | 0.0 | 0.00 | 0.00 | 0.00 | 80 | 1012.2 |
| 20260831100051 | 19 | 0 | 0.0 | 0.0 | 0.00 | 0.00 | 0.00 | 79 | 1012.2 |
| 20260831094601 | 20 | 0 | 0.0 | 0.0 | 0.00 | 0.00 | 0.00 | 79 | 1012.4 |
| 20260831093058 | 20 | 0 | 0.0 | 0.0 | 0.00 | 0.00 | 0.00 | 79 | 1012.3 |
| 20260831091554 | 20 | 0 | 0.0 | 0.0 | 0.00 | 0.00 | 0.00 | 78 | 1012.3 |
| 20260831090047 | 20 | 0 | 0.0 | 0.0 | 0.00 | 0.00 | 0.00 | 78 | 1012.3 |
| 20260831084602 | 20 | 0 | 0.0 | 0.0 | 0.00 | 0.00 | 0.00 | 77 | 1012.2 |
| 20260831083059 | 20 | 0 | 0.0 | 0.0 | 0.00 | 0.00 | 0.00 | 77 | 1012.3 |
| 20260831081557 | 20 | 0 | 0.0 | 1.6 | 0.00 | 0.00 | 0.00 | 77 | 1012.3 |
| 20260831080049 | 20 | 0 | 0.0 | 0.0 | 0.00 | 0.00 | 0.00 | 76 | 1012.3 |
| 20260831074559 | 21 | 0 | 0.0 | 0.0 | 0.00 | 0.00 | 0.00 | 76 | 1012.3 |
| 20260831073055 | 21 | 0 | 0.0 | 0.0 | 0.00 | 0.00 | 0.00 | 75 | 1012.3 |
| 20260831071552 | 21 | 0 | 0.0 | 0.0 | 0.00 | 0.00 | 0.00 | 75 | 1012.2 |
| 20260831070108 | 21 | 0 | 0.0 | 0.0 | 0.00 | 0.00 | 0.00 | 74 | 1012.1 |
| 20260831064553 | 21 | 0 | 0.0 | 0.0 | 0.00 | 0.00 | 0.00 | 74 | 1012.1 |
| 20260831063050 | 21 | 0 | 0.0 | 1.6 | 0.00 | 0.00 | 0.00 | 74 | 1012.1 |
| 20260831061546 | 22 | 291 | 0.0 | 1.6 | 0.00 | 0.00 | 0.00 | 73 | 1012.2 |
| 20260831060109 | 22 | 0 | 0.0 | 3.2 | 0.00 | 0.00 | 0.00 | 73 | 1012.1 |
| 20260831054554 | 22 | 0 | 0.0 | 1.6 | 0.00 | 0.00 | 0.00 | 71 | 1012.2 |
| 20260831053051 | 22 | 0 | 0.0 | 1.6 | 0.00 | 0.00 | 0.00 | 71 | 1012.3 |
| 20260831051603 | 22 | 0 | 0.0 | 1.6 | 0.00 | 0.00 | 0.00 | 70 | 1012.2 |
| 20260831050049 | 22 | 291 | 0.0 | 4.8 | 0.00 | 0.00 | 0.00 | 69 | 1012.2 |
| 20260831044554 | 22 | 0 | 0.0 | 1.6 | 0.00 | 0.00 | 0.00 | 68 | 1012.3 |
| 20260831043048 | 23 | 321 | 0.0 | 4.8 | 0.00 | 0.00 | 0.00 | 68 | 1012.0 |
| 20260831041544 | 23 | 0 | 0.0 | 4.8 | 0.00 | 0.00 | 0.00 | 67 | 1011.8 |
| 20260831040058 | 23 | 0 | 0.0 | 4.8 | 0.00 | 0.00 | 0.00 | 67 | 1011.7 |
| 20260831034549 | 23 | 240 | 1.6 | 4.8 | 0.00 | 0.00 | 0.00 | 67 | 1011.6 |
| 20260831033050 | 23 | 303 | 1.6 | 6.4 | 0.00 | 0.00 | 0.00 | 67 | 1011.3 |
| 20260831031558 | 23 | 0 | 1.6 | 11.3 | 0.00 | 0.00 | 0.00 | 67 | 1010.8 |
| 20260831030051 | 23 | 289 | 1.6 | 11.3 | 0.00 | 0.00 | 0.00 | 68 | 1010.8 |
| 20260831024611 | 23 | 0 | 1.6 | 9.7 | 0.00 | 0.00 | 0.00 | 69 | 1010.7 |
| 20260831023050 | 24 | 298 | 3.2 | 14.5 | 0.00 | 0.00 | 0.00 | 70 | 1010.7 |
| 20260831021559 | 25 | 303 | 1.6 | 6.4 | 0.00 | 0.00 | 0.00 | 70 | 1010.6 |
| 20260831020050 | 25 | 0 | 1.6 | 11.3 | 0.00 | 0.00 | 0.00 | 68 | 1010.5 |
| 20260831014557 | 26 | 269 | 1.6 | 8.0 | 0.00 | 0.00 | 0.00 | 67 | 1010.6 |
| 20260831013056 | 26 | 268 | 1.6 | 9.7 | 0.00 | 0.00 | 0.00 | 66 | 1010.5 |
| 20260831011551 | 27 | 0 | 1.6 | 8.0 | 0.00 | 0.00 | 0.00 | 65 | 1010.4 |
| 20260831010121 | 27 | 277 | 3.2 | 9.7 | 0.00 | 0.00 | 0.00 | 65 | 1010.3 |
| 20260831004558 | 27 | 177 | 4.8 | 12.9 | 0.00 | 0.00 | 0.00 | 65 | 1010.3 |
| 20260831003055 | 28 | 144 | 8.0 | 17.7 | 0.00 | 0.00 | 0.00 | 64 | 1010.5 |
| 20260831001558 | 28 | 167 | 8.0 | 19.3 | 0.00 | 0.00 | 0.00 | 62 | 1010.4 |
| 20260831000054 | 28 | 177 | 8.0 | 17.7 | 0.00 | 0.00 | 0.00 | 60 | 1010.4 |
| 20260830234549 | 28 | 184 | 8.0 | 17.7 | 0.00 | 0.00 | 0.00 | 61 | 1010.4 |
| 20260830233045 | 28 | 165 | 6.4 | 17.7 | 0.00 | 0.00 | 0.00 | 61 | 1010.3 |
| 20260830231558 | 28 | 226 | 4.8 | 17.7 | 0.00 | 0.00 | 0.00 | 61 | 1010.5 |
| 20260830230055 | 28 | 183 | 6.4 | 16.1 | 0.00 | 0.00 | 0.00 | 60 | 1010.6 |
| 20260830224555 | 29 | 217 | 4.8 | 17.7 | 0.00 | 0.00 | 0.00 | 60 | 1010.7 |
| 20260830223045 | 29 | 155 | 8.0 | 16.1 | 0.00 | 0.00 | 0.00 | 59 | 1010.9 |
| 20260830221555 | 29 | 176 | 6.4 | 14.5 | 0.00 | 0.00 | 0.00 | 60 | 1011.1 |
| 20260830220101 | 29 | 224 | 4.8 | 17.7 | 0.00 | 0.00 | 0.00 | 56 | 1011.1 |
| 20260830214602 | 29 | 190 | 8.0 | 17.7 | 0.00 | 0.00 | 0.00 | 58 | 1011.4 |
| 20260830213049 | 29 | 169 | 6.4 | 19.3 | 0.00 | 0.00 | 0.00 | 57 | 1011.6 |
| 20260830211549 | 30 | 158 | 8.0 | 16.1 | 0.00 | 0.00 | 0.00 | 58 | 1011.9 |
| 20260830204545 | 29 | 184 | 3.2 | 17.7 | 0.00 | 0.00 | 0.00 | 59 | 1012.2 |
| 20260830203105 | 30 | 166 | 4.8 | 17.7 | 0.00 | 0.00 | 0.00 | 60 | 1012.2 |
| 20260830201551 | 30 | 166 | 4.8 | 16.1 | 0.00 | 0.00 | 0.00 | 62 | 1012.1 |
| 20260830200103 | 29 | 248 | 3.2 | 17.7 | 0.00 | 0.00 | 0.00 | 62 | 1012.0 |
| 20260830194557 | 29 | 198 | 1.6 | 14.5 | 0.00 | 0.00 | 0.00 | 65 | 1012.2 |
| 20260830193049 | 29 | 236 | 4.8 | 16.1 | 0.00 | 0.00 | 0.00 | 64 | 1012.3 |
| 20260830191546 | 29 | 209 | 4.8 | 11.3 | 0.00 | 0.00 | 0.00 | 65 | 1012.4 |
| 20260830190046 | 28 | 322 | 6.4 | 16.1 | 0.00 | 0.00 | 0.00 | 66 | 1012.4 |
| 20260830184553 | 28 | 178 | 3.2 | 16.1 | 0.00 | 0.00 | 0.00 | 66 | 1012.5 |
| 20260830183105 | 28 | 152 | 6.4 | 14.5 | 0.00 | 0.00 | 0.00 | 67 | 1012.4 |
| 20260830181552 | 28 | 165 | 4.8 | 14.5 | 0.00 | 0.00 | 0.00 | 67 | 1012.4 |
| 20260830180104 | 28 | 160 | 3.2 | 11.3 | 0.00 | 0.00 | 0.00 | 67 | 1012.4 |
| 20260830174554 | 28 | 144 | 4.8 | 14.5 | 0.00 | 0.00 | 0.00 | 67 | 1012.3 |
| 20260830173113 | 28 | 177 | 4.8 | 11.3 | 0.00 | 0.00 | 0.00 | 66 | 1012.4 |
| 20260830171556 | 27 | 206 | 3.2 | 8.0 | 0.00 | 0.00 | 0.00 | 66 | 1012.4 |
| 20260830170052 | 27 | 241 | 0.0 | 8.0 | 0.00 | 0.00 | 0.00 | 66 | 1012.3 |
| 20260830164547 | 26 | 262 | 3.2 | 9.7 | 0.00 | 0.00 | 0.00 | 70 | 1012.4 |
| 20260830163100 | 26 | 151 | 0.0 | 8.0 | 0.00 | 0.00 | 0.00 | 73 | 1012.3 |
| 20260830161603 | 25 | 179 | 1.6 | 8.0 | 0.00 | 0.00 | 0.00 | 76 | 1012.3 |
| 20260830160048 | 25 | 183 | 4.8 | 9.7 | 0.00 | 0.00 | 0.00 | 78 | 1012.3 |
| 20260830154544 | 23 | 143 | 1.6 | 8.0 | 0.00 | 0.00 | 0.00 | 80 | 1012.3 |
| 20260830153055 | 23 | 219 | 1.6 | 6.4 | 0.00 | 0.00 | 0.00 | 83 | 1012.4 |
| 20260830151602 | 22 | 154 | 0.0 | 6.4 | 0.00 | 0.00 | 0.00 | 85 | 1012.4 |
| 20260830150050 | 22 | 0 | 0.0 | 4.8 | 0.00 | 0.00 | 0.00 | 85 | 1012.4 |
| 20260830144546 | 21 | 0 | 0.0 | 4.8 | 0.00 | 0.00 | 0.00 | 85 | 1012.3 |
| 20260830143053 | 21 | 0 | 0.0 | 0.0 | 0.00 | 0.00 | 0.00 | 86 | 1012.2 |
| 20260830141548 | 20 | 0 | 0.0 | 0.0 | 0.00 | 0.00 | 0.00 | 85 | 1012.2 |
| 20260830140056 | 20 | 0 | 0.0 | 0.0 | 0.00 | 0.00 | 0.00 | 85 | 1012.0 |
| 20260830134550 | 20 | 0 | 0.0 | 1.6 | 0.00 | 0.00 | 0.00 | 85 | 1011.9 |
| 20260830133050 | 20 | 0 | 0.0 | 1.6 | 0.00 | 0.00 | 0.00 | 84 | 1011.8 |
| 20260830131610 | 20 | 0 | 0.0 | 0.0 | 0.00 | 0.00 | 0.00 | 84 | 1011.5 |
| 20260830130052 | 20 | 0 | 0.0 | 0.0 | 0.00 | 0.00 | 0.00 | 84 | 1011.5 |
| 20260830124553 | 21 | 0 | 0.0 | 0.0 | 0.00 | 0.00 | 0.00 | 84 | 1011.4 |
| 20260830123054 | 21 | 0 | 0.0 | 0.0 | 0.00 | 0.00 | 0.00 | 83 | 1011.3 |
| 20260830121559 | 21 | 0 | 0.0 | 0.0 | 0.00 | 0.00 | 0.00 | 83 | 1011.2 |
| 20260830114551 | 21 | 0 | 0.0 | 0.0 | 0.00 | 0.00 | 0.00 | 83 | 1011.1 |
| 20260830113050 | 21 | 0 | 0.0 | 0.0 | 0.00 | 0.00 | 0.00 | 83 | 1011.1 |
| 20260830111548 | 21 | 0 | 0.0 | 1.6 | 0.00 | 0.00 | 0.00 | 82 | 1011.2 |
| 20260830110129 | 21 | 0 | 0.0 | 0.0 | 0.00 | 0.00 | 0.00 | 82 | 1011.2 |
| 20260830104550 | 21 | 0 | 0.0 | 1.6 | 0.00 | 0.00 | 0.00 | 82 | 1011.2 |
| 20260830103049 | 22 | 0 | 0.0 | 1.6 | 0.00 | 0.00 | 0.00 | 82 | 1011.2 |